Wind_Speed
19 20 22 25 24 24 24 24 26 26 27 30 30 33 33 31 32 34 36 38 41 43 47 50 52 56 57 58 59 59 60 61 63 62 59 55 50 45 40 43 49 50 53 53
17 20 21 22 22 23 24 25 28 28 30 35 33 37 36 35 35 37 39 41 42 44 46 48 52 57 58 58 60 60 62 64 65 65 63 61 57 51 49 49 50 53 54 52
20 23 23 24 25 26 27 29 31 32 34 38 40 43 40 41 43 40 44 47 49 50 51 51 54 55 56 60 62 62 63 63 66 69 69 66 64 60 57 54 52 53 47 48
25 26 26 26 27 29 29 34 34 36 37 38 42 48 41 41 42 44 47 52 54 55 56 57 57 57 61 62 63 65 65 65 65 65 68 66 64 59 52 52 50 56 58 51
27 26 26 26 29 29 29 32 35 37 39 41 38 45 46 45 42 48 49 49 52 55 59 60 62 63 61 63 64 65 68 68 66 66 65 64 64 62 58 56 58 57 56 59
25 27 27 27 28 30 33 33 36 38 40 43 41 45 45 42 50 52 53 54 55 57 54 57 58 60 62 63 66 68 69 69 67 64 62 63 63 60 62 61 60 58 62 60
28 28 28 27 32 33 32 34 35 37 31 33 38 45 41 48 54 54 58 57 58 54 49 48 54 59 62 63 62 63 66 66 64 60 57 59 62 63 59 62 59 59 62 68
28 26 32 30 31 32 35 30 34 38 37 40 39 43 40 48 54 56 54 50 46 43 43 41 44 45 47 46 46 47 50 58 56 52 52 57 63 65 65 67 63 61 61 63
33 32 32 33 31 30 37 31 32 36 37 41 40 42 46 50 48 48 44 43 37 37 36 35 42 42 40 42 44 46 47 50 55 54 54 56 57 62 61 61 56 56 55 54
33 33 34 31 29 29 29 33 31 33 37 39 38 41 32 31 41 41 39 36 32 30 38 36 36 45 46 45 45 42 46 53 56 57 57 58 58 56 58 58 56 56 57 55
36 33 33 27 30 29 27 28 30 33 35 37 40 33 34 32 33 33 33 37 36 28 24 29 31 32 38 42 46 47 45 42 58 58 60 62 62 62 62 60 58 54 55 57
29 29 26 28 29 26 25 25 30 33 32 35 34 29 27 27 28 27 25 28 29 31 35 33 32 34 29 33 40 42 42 40 46 61 60 62 65 64 60 57 55 53 48 52
26 27 24 26 27 25 22 25 28 30 30 26 30 21 26 26 29 26 25 25 27 30 34 36 37 35 34 32 36 39 35 37 44 54 64 65 66 65 62 56 59 53 52 49
27 26 24 24 26 25 20 23 26 29 27 27 22 23 25 26 30 26 24 28 30 34 35 37 39 38 38 39 37 40 41 39 43 47 57 67 73 71 67 67 66 59 54 52
26 24 25 25 23 22 20 21 25 25 22 25 20 25 23 26 29 30 33 33 33 34 36 39 39 41 44 42 40 40 44 43 42 50 50 58 66 68 69 73 63 60 58 57
24 24 25 21 19 22 18 20 21 21 20 22 22 21 25 25 28 32 37 40 41 41 40 41 43 46 47 47 47 47 46 47 48 46 48 65 63 63 68 71 71 63 59 60
24 23 24 17 19 22 18 17 20 18 19 22 21 23 27 30 35 38 41 42 41 39 39 39 44 49 53 55 55 56 54 54 52 52 50 55 56 52 56 54 58 61 59 59
25 25 21 14 20 19 18 19 19 16 20 22 23 26 30 38 42 41 47 50 48 47 47 49 51 51 50 55 61 63 64 63 62 59 59 57 71 68 69 64 63 60 60 58
22 21 14 18 17 16 21 20 18 17 17 22 26 30 35 39 41 37 49 49 45 42 41 38 39 40 42 46 53 62 70 73 72 69 67 63 62 75 78 74 74 70 72 67
20 15 14 15 16 18 21 19 18 18 21 19 25 30 34 36 39 39 39 38 31 31 32 34 37 38 41 46 53 56 52 68 79 81 76 71 68 65 74 68 64 61 58 54
14 13 13 14 18 19 17 20 21 20 18 22 25 28 32 36 40 39 32 30 33 33 32 30 31 34 42 40 42 50 44 42 56 78 84 85 79 74 72 71 71 66 61 60
11 13 12 15 19 20 17 19 19 17 21 20 24 29 30 31 37 35 32 33 33 27 26 39 38 42 45 38 34 37 40 45 43 41 47 65 80 84 79 78 75 71 65 64
10 12 11 14 13 17 18 17 16 18 16 20 21 25 25 31 34 34 33 39 23 29 31 39 44 48 45 32 38 39 43 41 43 46 45 50 46 67 83 84 78 77 73 67
15 15 16 19 19 20 18 13 12 15 15 18 21 23 26 30 36 37 37 29 28 29 31 36 46 43 40 32 37 38 39 36 35 37 46 41 51 46 48 68 81 78 76 75
15 16 17 18 18 16 14 10 11 13 15 18 22 26 28 29 33 37 29 26 28 27 33 37 46 48 38 34 33 31 23 18 17 20 24 37 43 48 43 41 51 75 76 76
16 15 16 16 15 13 13 10 10 13 14 19 19 21 25 30 32 31 23 26 31 29 38 35 45 49 42 39 33 31 24 22 10 11 12 20 31 40 46 45 43 50 67 77
Wind_Direction
234 237 240 243 247 252 254 255 256 258 259 259 261 263 263 260 262 263 260 260 262 260 256 253 257 258 256 257 257 257 258 261 262 264 265 262 264 261 257 254 255 253 250 252
234 236 240 245 246 249 255 259 260 261 263 265 266 264 266 268 265 265 265 265 265 265 264 262 259 255 255 256 256 256 255 255 257 258 261 261 259 254 254 257 255 257 260 256
243 246 247 249 252 256 260 262 263 263 266 271 271 268 271 274 272 270 272 272 270 268 265 264 262 258 256 256 255 255 255 253 254 257 258 259 259 256 257 257 256 258 258 247
247 249 252 255 259 259 263 263 267 269 269 270 273 279 275 272 274 275 272 271 269 268 268 267 264 261 258 256 254 252 251 251 252 251 254 257 258 260 252 253 252 251 257 253
248 252 256 260 261 266 262 271 273 276 277 280 279 279 283 285 281 272 274 274 276 275 273 274 271 268 259 254 252 250 246 245 247 249 250 252 254 254 252 241 249 249 248 252
256 258 261 262 267 272 277 279 280 282 285 285 290 282 287 293 286 289 288 288 284 283 281 274 268 265 262 253 249 248 245 241 240 241 242 246 250 251 249 252 248 246 245 246
250 255 258 264 273 274 275 280 284 284 285 292 284 288 297 289 290 295 295 294 291 289 278 262 257 257 257 256 254 249 243 241 241 241 238 239 239 242 244 243 241 250 250 249
249 252 259 264 268 272 278 278 280 285 286 285 290 294 298 298 299 299 295 291 288 280 267 254 249 250 252 254 255 254 251 245 241 239 238 235 234 238 240 243 247 249 251 250
260 259 264 267 268 272 279 279 282 283 287 291 298 303 302 302 297 292 290 288 280 261 252 251 240 243 248 251 251 250 248 243 238 236 235 235 238 239 241 246 246 246 251 251
268 272 275 274 273 273 277 283 287 289 290 292 298 300 301 296 295 299 289 281 275 269 261 265 261 255 251 253 251 251 249 242 235 233 232 236 238 239 239 240 241 245 249 251
266 269 275 277 277 280 280 282 283 285 292 296 301 304 302 292 297 303 294 279 281 272 281 276 270 265 255 254 248 251 254 248 235 231 232 233 236 237 238 242 241 242 244 248
263 269 272 275 277 275 278 281 284 289 298 304 302 309 290 286 292 305 305 293 295 290 278 281 280 267 267 261 249 246 250 246 236 233 233 230 232 238 241 240 246 241 244 245
265 270 271 276 276 274 279 282 287 293 298 308 296 300 289 295 298 302 301 304 295 292 282 278 273 271 264 258 248 240 243 243 235 231 235 238 240 245 239 237 240 240 242 248
268 269 270 267 264 279 281 287 290 294 310 304 307 299 307 289 299 298 300 305 301 287 285 278 274 271 267 262 254 247 245 241 238 237 235 235 241 243 241 241 241 247 245 245
271 270 265 263 264 276 286 288 288 301 302 299 303 298 294 295 302 297 294 297 297 292 284 277 274 268 266 263 258 251 249 246 240 238 238 238 238 240 243 246 248 247 249 244
267 267 260 260 266 275 285 281 285 290 292 299 300 307 299 303 304 304 301 300 293 287 282 277 270 266 263 260 257 258 253 249 245 244 241 247 237 239 243 245 245 246 243 240
267 260 256 251 263 272 281 273 280 278 283 287 297 299 299 301 304 308 307 298 302 300 292 283 274 268 262 259 255 253 254 253 248 244 242 235 245 244 240 240 240 241 243 245
259 253 248 246 260 271 280 273 268 268 280 290 297 297 305 313 317 320 309 307 306 299 292 286 282 276 268 262 258 255 251 249 249 245 240 237 237 239 246 246 240 242 242 243
255 244 235 254 259 269 275 267 260 262 276 292 298 304 310 313 312 314 307 310 310 304 301 301 300 298 296 287 269 255 251 250 247 246 244 240 237 235 230 233 236 243 244 242
246 230 248 258 268 274 271 267 264 267 277 284 292 305 315 315 312 320 321 321 314 312 305 306 308 304 298 287 281 277 267 250 247 247 248 243 238 239 243 226 231 234 228 238
232 245 258 267 273 274 282 264 266 268 280 292 306 315 319 318 324 336 335 335 327 323 322 324 325 322 309 295 281 280 290 274 253 243 242 242 242 238 238 237 238 238 235 237
238 257 264 269 274 281 276 267 259 267 287 301 310 316 316 326 337 341 337 341 343 327 343 346 338 330 326 321 304 290 292 291 283 268 249 241 239 237 234 235 235 235 234 231
241 253 261 265 275 281 282 270 256 266 286 302 310 311 327 339 346 339 337 342 342 333 335 344 350 343 336 331 320 308 295 284 272 265 255 244 239 238 235 231 232 233 234 233
251 262 275 282 283 281 274 258 251 271 295 306 318 324 334 343 344 344 347 346 348 350 351 353 355 338 338 332 317 315 304 292 282 265 248 239 228 224 231 229 228 229 229 230
260 274 284 286 288 276 259 235 255 288 300 320 330 334 332 343 343 346 355 0 359 2 359 357 358 354 360 355 343 340 335 323 295 271 256 229 221 221 221 226 227 226 227 225
275 286 281 284 285 260 238 234 262 287 313 320 331 331 332 342 343 351 8 18 16 6 4 4 5 7 6 11 15 16 11 12 345 283 242 207 210 211 217 228 232 226 226 224
Height
5747 5749 5750 5751 5754 5755 5756 5757 5758 5759 5759 5758 5760 5759 5760 5763 5762 5762 5764 5764 5764 5766 5767 5767 5766 5767 5769 5770 5772 5775 5778 5780 5781 5783 5788 5794 5800 5802 5803 5805 5807 5809 5812 5815
5743 5744 5746 5747 5748 5749 5751 5751 5751 5752 5751 5749 5752 5750 5752 5754 5755 5755 5754 5754 5755 5756 5756 5755 5757 5756 5755 5758 5758 5760 5763 5766 5769 5773 5776 5781 5786 5789 5791 5793 5796 5798 5802 5803
5737 5738 5740 5741 5742 5744 5744 5743 5743 5745 5744 5742 5742 5741 5745 5744 5743 5745 5742 5741 5740 5742 5742 5743 5742 5743 5744 5745 5744 5746 5749 5751 5755 5759 5761 5765 5770 5775 5780 5784 5786 5789 5790 5792
5731 5732 5733 5735 5735 5737 5737 5734 5735 5734 5735 5735 5732 5726 5734 5733 5733 5731 5729 5725 5724 5725 5726 5727 5727 5727 5726 5730 5731 5732 5734 5736 5739 5743 5743 5749 5756 5762 5767 5770 5772 5776 5776 5781
5724 5725 5727 5728 5727 5727 5729 5727 5726 5725 5724 5722 5727 5720 5719 5718 5721 5715 5714 5714 5711 5709 5708 5708 5706 5707 5709 5709 5710 5713 5717 5720 5725 5727 5731 5736 5741 5748 5750 5752 5757 5762 5767 5771
5717 5717 5718 5719 5718 5718 5717 5718 5717 5715 5714 5711 5713 5707 5707 5708 5697 5696 5694 5694 5692 5689 5689 5686 5684 5684 5685 5688 5691 5694 5697 5702 5706 5711 5717 5721 5727 5732 5735 5739 5741 5748 5752 5756
5711 5711 5710 5712 5709 5709 5710 5709 5708 5706 5705 5704 5699 5696 5699 5691 5684 5681 5676 5673 5669 5667 5666 5665 5663 5665 5666 5667 5672 5677 5680 5686 5689 5694 5700 5707 5713 5715 5722 5723 5728 5733 5736 5740
5703 5706 5702 5704 5703 5703 5700 5703 5699 5695 5697 5695 5693 5687 5686 5678 5671 5666 5662 5658 5656 5655 5652 5651 5650 5651 5652 5654 5657 5662 5667 5672 5675 5680 5687 5693 5698 5702 5706 5712 5715 5718 5721 5724
5694 5696 5697 5695 5695 5696 5689 5693 5692 5688 5686 5681 5681 5677 5671 5666 5661 5655 5651 5647 5645 5644 5642 5641 5640 5640 5642 5644 5646 5648 5652 5657 5662 5668 5674 5678 5684 5689 5694 5698 5703 5705 5710 5713
5686 5687 5684 5685 5685 5686 5685 5682 5682 5679 5677 5674 5675 5670 5664 5658 5651 5646 5642 5639 5636 5634 5633 5632 5630 5631 5631 5632 5633 5636 5640 5644 5649 5655 5661 5667 5671 5675 5680 5685 5689 5693 5698 5701
5677 5677 5676 5678 5675 5676 5676 5675 5674 5671 5670 5665 5663 5662 5655 5648 5643 5638 5633 5631 5629 5627 5625 5623 5622 5621 5620 5621 5622 5625 5628 5630 5636 5642 5647 5651 5656 5659 5664 5670 5675 5680 5686 5690
5668 5668 5669 5669 5667 5668 5667 5667 5664 5661 5661 5656 5653 5655 5645 5641 5637 5633 5627 5623 5621 5618 5617 5615 5613 5613 5612 5611 5612 5615 5617 5619 5621 5628 5632 5635 5640 5645 5651 5656 5663 5668 5674 5678
5660 5660 5661 5660 5661 5660 5661 5659 5656 5653 5651 5651 5644 5644 5636 5634 5630 5626 5621 5618 5614 5611 5608 5606 5605 5604 5603 5602 5602 5604 5606 5607 5610 5613 5618 5621 5624 5629 5635 5640 5648 5654 5660 5665
5652 5653 5653 5654 5652 5651 5653 5651 5648 5645 5643 5639 5638 5635 5631 5627 5624 5621 5616 5612 5608 5605 5601 5597 5595 5592 5591 5592 5592 5593 5594 5596 5598 5599 5602 5606 5609 5615 5621 5625 5631 5639 5645 5651
5645 5646 5644 5645 5644 5644 5645 5644 5641 5638 5637 5633 5633 5628 5626 5622 5619 5615 5610 5606 5601 5596 5592 5588 5585 5583 5581 5580 5579 5580 5581 5582 5585 5586 5588 5590 5593 5599 5604 5610 5616 5623 5630 5636
5637 5638 5637 5637 5637 5637 5639 5636 5634 5632 5631 5628 5625 5623 5619 5617 5612 5608 5602 5596 5590 5585 5581 5577 5572 5568 5566 5565 5564 5563 5565 5567 5569 5571 5572 5571 5574 5582 5589 5595 5601 5608 5614 5621
5629 5629 5630 5631 5631 5630 5632 5630 5627 5626 5625 5623 5620 5618 5613 5609 5604 5599 5590 5582 5577 5573 5567 5562 5557 5553 5549 5547 5546 5545 5547 5548 5551 5555 5558 5560 5562 5567 5573 5579 5586 5592 5599 5606
5621 5621 5622 5625 5625 5625 5623 5622 5621 5621 5619 5616 5613 5610 5605 5598 5592 5588 5576 5566 5562 5557 5550 5544 5537 5533 5531 5529 5528 5527 5526 5527 5529 5534 5539 5544 5547 5550 5556 5562 5569 5576 5585 5592
5613 5613 5615 5618 5618 5619 5616 5616 5616 5615 5614 5610 5605 5602 5597 5591 5584 5583 5565 5558 5549 5540 5533 5527 5522 5517 5513 5508 5504 5502 5503 5504 5506 5509 5515 5522 5528 5534 5537 5543 5550 5560 5567 5576
5606 5607 5611 5612 5612 5612 5610 5609 5609 5608 5606 5604 5600 5596 5589 5584 5573 5569 5559 5549 5540 5533 5526 5519 5514 5507 5500 5493 5484 5477 5474 5473 5479 5485 5492 5499 5506 5512 5518 5527 5536 5545 5553 5564
5601 5603 5606 5606 5605 5605 5603 5602 5602 5602 5604 5598 5594 5588 5583 5576 5565 5556 5549 5542 5533 5526 5519 5512 5506 5498 5486 5476 5467 5458 5450 5448 5448 5451 5459 5468 5481 5492 5501 5510 5520 5531 5541 5549
5598 5599 5600 5600 5599 5598 5597 5596 5596 5596 5594 5592 5589 5582 5577 5569 5560 5551 5543 5536 5527 5521 5514 5507 5498 5484 5470 5458 5450 5443 5437 5429 5427 5427 5430 5439 5451 5465 5476 5489 5502 5513 5523 5534
5596 5596 5597 5596 5595 5591 5590 5590 5590 5590 5590 5586 5582 5576 5570 5563 5555 5546 5538 5531 5523 5517 5510 5501 5488 5474 5459 5448 5438 5429 5422 5415 5409 5407 5410 5416 5425 5436 5450 5466 5479 5492 5505 5517
5589 5589 5589 5588 5587 5585 5584 5584 5586 5585 5584 5581 5574 5568 5565 5558 5550 5543 5534 5527 5521 5513 5505 5496 5482 5469 5453 5439 5428 5414 5403 5396 5391 5388 5389 5395 5407 5420 5430 5442 5458 5472 5485 5499
5584 5584 5583 5582 5580 5579 5578 5580 5581 5579 5578 5575 5568 5564 5559 5555 5548 5539 5531 5525 5518 5511 5502 5492 5480 5462 5446 5433 5420 5405 5394 5386 5380 5378 5376 5382 5393 5409 5420 5430 5439 5453 5466 5480
5578 5579 5578 5576 5574 5573 5574 5576 5576 5575 5574 5570 5566 5564 5557 5550 5544 5537 5530 5524 5517 5510 5501 5491 5477 5460 5444 5432 5420 5406 5395 5385 5378 5376 5376 5379 5388 5400 5411 5421 5430 5439 5448 5461